C/2014 B1 ( Schwartz )

Japanese version
Home page
Updated on May 23, 2019

---------------------------------------------------------------------

* Profile

Discovery Date January 28, 2014
Magnitude 19.9 mag
Discoverer Michael Schwartz (Tenagra Observatory near Nogales, AZ, U.S.A.)

* Pictures

* Orbital Elements

Epoch 2017 Sept. 4.0 TT = JDT 2458000.5
T 2017 Sept. 10.53331 TT                                MPCW
q   9.5565935            (2000.0)            P               Q
z  -0.0003923      Peri.  345.84158     -0.85029237     -0.50400341
 +/-0.0000005      Node   161.39567     +0.51719299     -0.85353164
e   1.0037492      Incl.   28.37225     +0.09754121     +0.13215257
From 963 observations 2014 Jan. 28-2019 May 10, mean residual 0".4.

* Magnitudes Graph

        m1 = -13.0 + 5 log d + 25 log r(t + 200)

---------------------------------------------------------------------

The orbital elements are published on M.P.E.C. 2019-J142.
The magnitudes graphs are made with Comet for Windows.

---------------------------------------------------------------------

Copyright(C) Seiichi Yoshida (comet@aerith.net). All rights reserved.